Regional Weather Roundup
Issued by NWS

Home | Current Version | Previous Version | Text Only | Print | Product List | Glossary Off
Versions: 1 2 3 4 5 6 7 8 9 10 11 12 13 14 15 16 17 18 19 20 21 22 23 24 25 26 27 28 29 30 31 32 33 34 35 36 37 38 39 40 41 42 43 44 45 46 47 48 49 50

219
ASUS43 KBIS 302102
RWRND

NORTH DAKOTA REGIONAL WEATHER ROUNDUP
NATIONAL WEATHER SERVICE BISMARCK ND
400 PM CDT FRI SEP 30 2016

NOTE: "FAIR" INDICATES FEW OR NO CLOUDS BELOW 12,000 FEET WITH NO
SIGNIFICANT WEATHER AND/OR OBSTRUCTIONS TO VISIBILITY.


NDZ001>003-009>011-017-302200-
NORTHWEST NORTH DAKOTA

CITY           SKY/WX    TMP DP  RH WIND       PRES   REMARKS
WILLISTON      CLOUDY    63  51  65 SE14G22   29.98F
MINOT          CLOUDY    61  53  75 NE5       30.07F
MINOT AFB      CLOUDY    59  53  80 SE8       30.07S
$$

NDZ018>021-031>035-040>046-302200-
SOUTHWEST NORTH DAKOTA

CITY           SKY/WX    TMP DP  RH WIND       PRES   REMARKS
BISMARCK       CLOUDY    68  48  48 SE14      30.09S
DICKINSON      SUNNY     65  45  48 SE17      30.01F
GARRISON         N/A     64  53  67 SE6       30.06F
HETTINGER ARPT CLOUDY    69  46  43 SE17G26   30.03F
$$

NDZ004>008-012>016-024-026-027-054-302200-
NORTHEAST NORTH DAKOTA

CITY           SKY/WX    TMP DP  RH WIND       PRES   REMARKS
GRAND FORKS    PTSUNNY   70  49  47 SE16      30.20F
GRND FRKS AFB  MOSUNNY   66  50  55 SE13      30.19F
DEVILS LAKE    CLOUDY    63  50  62 S10       30.17S
$$

NDZ022-023-025-028>030-036>039-047>053-302200-
SOUTHEAST NORTH DAKOTA

CITY           SKY/WX    TMP DP  RH WIND       PRES   REMARKS
FARGO          CLOUDY    73  49  42 SE15      30.21F
JAMESTOWN      CLOUDY    69  47  45 S15G24    30.15F
$$





USA.gov is the U.S. government's official web portal to all federal, state and local government web resources and services.